User: anonymous   Login
Location: Unspecified
(0.0000°N, 0.0000°E)
Time: 00:55:02
(UTC+00:00)
Language:

Explorer 29 - Orbit

View from above orbital plane
View from above orbital plane
View from above satellite
View from above satellite

Ground track
Ground track

The orbit data is extracted from the following two-line orbital elements,

1  1726U 65089A   17324.23372583 -.00000049 +00000-0 +15527-3 0  9991
2  1726 059.3824 227.0461 0714444 334.0899 146.6946 11.97046093274819
Epoch (UTC): 20 November 2017 05:36:33
Eccentricity: 0.0714444
inclination: 59.3824°
perigee height: 1117 km
apogee height: 2271 km
right ascension of ascending node: 227.0461°
argument of perigee: 334.0899°
revolutions per day: 11.97046093
mean anomaly at epoch: 146.6946°
orbit number at epoch: 27481

The dashed part of the orbit path shows where the satellite is in the earth's shadow,  

DLR